weather.gov     
National Weather Service

Regional Weather Roundup
NWS Homepage
This page is being discontinued on March 12, 2014.
The same data is available at this site. Please update your bookmarks.
Thank you, and we apologize for the inconvenience.
Please send an email to SR-SRH.Webmaster@noaa.gov with any concerns.


Current Version
Previous Version:    01  02  03  04  05  06  07  08  09  10  11  12  13  14  15  16  17  18  19  20  21  22  23  24  25  26  27  28  29  30  
   31  32  33  34  35  36  37  38  39  40  41  42  43  44  45  46  47  48  49  50  51  52  53  54  
[Printable]
332
ASUS45 KABQ 272210
RWRNM
WEATHER ROUNDUP FOR NEW MEXICO
NATIONAL WEATHER SERVICE ALBUQUERQUE NM
300 PM MST THU NOV 27 2014

NOTE: "FAIR" MEANS FEW OR NO CLOUDS BELOW 12,000 FEET AGL WITH NO
       SIGNIFICANT WEATHER OR OBSTRUCTIONS TO VISION.

      THIS PRODUCT IS RELEASED AS TWO VERSIONS.  ONE VERSION NEAR
      THE TOP OF THE HOUR CONTAINING PRELIMINARY DATA FROM ALBUQUERQUE
      AND OTHER STATIONS.  A FINAL VERSION WITH ADDITIONAL DATA IS
      ISSUED ABOUT 10 MINUTES AFTER THE HOUR.

NMZ501-503-504-510>518-272300-
NORTHWEST PLATEAU/NORTHCENTRAL MOUNTAINS

CITY           SKY/WX    TMP DP  RH WIND       PRES   REMARKS
FARMINGTON     SUNNY     56  22  26 W6        30.35F
LOS ALAMOS     SUNNY     56  19  23 S6        30.39S
SANTA FE       SUNNY     59  19  21 SW9       30.35F
TAOS           SUNNY     54  19  26 S6        30.37F
ANGEL FIRE     FAIR      50  10  19 W9        30.40S

$$
NMZ402-403-502-505>509-272300-
WESTCENTRAL MOUNTAINS/SOUTHWEST MOUNTAINS

CITY           SKY/WX    TMP DP  RH WIND       PRES   REMARKS
GALLUP         SUNNY     62  15  16 VRB5      30.37F
GRANTS         SUNNY     63   7  11 N3        30.37F
SILVER CITY    SUNNY     63  19  19 S7        30.36S

$$
NMZ407-409-411-412-272300-
SOUTHERN DESERTS

CITY           SKY/WX    TMP DP  RH WIND       PRES   REMARKS
LORDSBURG      FAIR      68  23  18 SE10      30.29S
DEMING         SUNNY     67  23  19 VRB3      30.30F
LAS CRUCES     SUNNY     67  21  17 SE3       30.32F
HOLLOMAN AFB   MOSUNNY   65  24  21 NW2       30.30F
ALAMOGORDO     MOSUNNY   66  23  19 SW5       30.31F
T OR C         SUNNY     64  20  18 SE3       30.31F

$$
NMZ519>523-272300-
CENTRAL VALLEYS/CENTRAL HIGHLANDS

CITY           SKY/WX    TMP DP  RH WIND       PRES   REMARKS
ALBUQUERQUE    MOSUNNY   59  22  24 CALM      30.34F
DOUBLE EAGLE   SUNNY     57  21  24 CALM      30.36F
MORIARTY ARPT  FAIR      64  22  20 N6        30.34F
CLINES CORNERS SUNNY     60  21  22 W15       30.34F
BELEN          FAIR      60  21  21 N3        30.34F
SOCORRO        FAIR      63  19  19 CALM      30.33F

$$
NMZ524>526-539-540-272300-
SOUTHCENTRAL MOUNTAINS

CITY           SKY/WX    TMP DP  RH WIND       PRES   REMARKS
RUIDOSO        SUNNY     61  21  21 NW12      30.38F

$$
NMZ527>531-272300-
NORTHEAST HIGHLANDS/NORTHEAST PLAINS

CITY           SKY/WX    TMP DP  RH WIND       PRES   REMARKS
LAS VEGAS      SUNNY     65  16  15 S15       30.30F
RATON          CLOUDY    57  23  26 S5        30.25F
CLAYTON        PTSUNNY   61  26  26 SW13      30.19S

$$
NMZ532>537-272300-
EASTCENTRAL PLAINS

CITY           SKY/WX    TMP DP  RH WIND       PRES   REMARKS
TUCUMCARI      SUNNY     65  28  24 SW14      30.21F
CANNON AFB     SUNNY     64  26  24 SW15      30.26F
CLOVIS AIRPORT SUNNY     64  28  25 SW18      30.26F

$$
NMZ028-029-538-272300-
SOUTHEAST PLAINS

CITY           SKY/WX    TMP DP  RH WIND       PRES   REMARKS
ROSWELL        SUNNY     62  30  29 S12       30.28F
CARLSBAD       SUNNY     61  30  31 SE13      30.29F
HOBBS          SUNNY     59  28  31 S13       30.32F


$$




U.S. Dept. of Commerce
NOAA National Weather Service
1325 East West Highway
Silver Spring, MD 20910
E-mail: w-nws.webmaster@noaa.gov
Page last modified: May 16, 2007
NATIONAL WEATHER SERVICE: for Safety, for Work, for Fun - FOR LIFE